Date String (YYYY-MM-DD hh:mm:ss) UTC,Instrument flags,Ambient pressure (hPa),Sample flow (lpm),Bypass flow (lpm),Sample temperature (°C),Ambient temperature (°C),ASC tube jacket temperature (°C),LED temperature (°C),Box temperature (°C),Sample RH (%),Span deviation,Mass concentration (μg/m³),Mass concentration (μg/m³),Mass concentration (μg/m³)
DateTimeUTC,F1_M11,P_M11,Q1_M11,Q2_M11,T1_M11,T2_M11,T3_M11,T4_M11,T5_M11,U1_M11,ZSPAN_M11,X2_M11,X0_M11,X1_M11
2023-01-24 17:00:00,,0825.9,5.00,0.00,21.3,19.1,00.0,30.2,22.7,12.5,-002.4,0016.67,0023.93,0015.80
2023-01-24 17:01:00,,0826.0,4.99,0.00,21.3,19.1,00.0,30.2,22.7,12.5,-002.2,0016.64,0024.10,0015.78
2023-01-24 17:02:00,,0825.9,4.99,0.00,21.3,20.0,00.0,30.2,22.8,12.5,-002.5,0016.65,0024.34,0015.79
2023-01-24 17:03:00,,0826.0,4.99,0.00,21.4,21.5,00.0,30.2,23.1,12.4,-002.5,0016.75,0025.03,0015.84
2023-01-24 17:04:00,,0826.0,5.00,0.00,21.5,22.1,00.0,30.2,23.3,12.3,-002.4,0016.79,0025.16,0015.88
2023-01-24 17:05:00,,0826.0,4.99,0.00,21.5,21.6,00.0,30.2,23.3,12.3,-002.3,0016.83,0024.98,0015.95
2023-01-24 17:06:00,,0826.0,5.00,0.00,21.5,21.1,00.0,30.2,23.3,12.4,-002.3,0016.84,0024.75,0015.99
2023-01-24 17:07:00,,0826.0,5.00,0.00,21.5,20.7,00.0,30.2,23.2,12.3,-002.3,0016.88,0024.81,0016.06
2023-01-24 17:08:00,,0825.9,5.00,0.00,21.5,20.4,00.0,30.2,23.2,12.3,-002.3,0016.96,0024.65,0016.14
2023-01-24 17:09:00,,0826.0,5.01,0.00,21.5,20.2,00.0,30.3,23.1,12.4,-002.3,0017.01,0024.49,0016.21
2023-01-24 17:10:00,,0826.0,5.01,0.00,21.5,20.0,00.0,30.3,23.1,12.4,-002.1,0017.08,0024.04,0016.27
2023-01-24 17:11:00,,0826.0,4.98,0.00,21.5,19.9,00.0,30.2,23.1,12.4,-001.9,0017.11,0023.44,0016.33
2023-01-24 17:12:00,,0826.0,5.00,0.00,21.5,19.8,00.0,30.2,23.1,12.5,-002.1,0017.19,0023.56,0016.35
2023-01-24 17:13:00,,0826.0,5.02,0.00,21.4,19.8,00.0,30.2,23.1,12.5,-002.0,0017.26,0023.54,0016.39
2023-01-24 17:14:00,,0826.0,5.00,0.00,21.4,19.7,00.0,30.2,23.0,12.4,-002.0,0017.21,0023.34,0016.41
2023-01-24 17:15:00,,0826.0,4.99,0.00,21.4,19.7,00.0,30.2,23.0,12.4,-002.0,0017.22,0023.56,0016.43
2023-01-24 17:16:00,,0826.0,5.00,0.00,21.4,19.7,00.0,30.2,23.0,12.4,-001.9,0017.21,0023.75,0016.42
2023-01-24 17:17:00,,0826.0,5.01,0.00,21.4,19.9,00.0,30.2,23.0,12.3,-002.1,0017.20,0024.41,0016.37
2023-01-24 17:18:00,,0826.0,5.01,0.00,21.5,21.2,00.0,30.2,23.2,12.4,-002.2,0017.20,0025.23,0016.34
2023-01-24 17:19:00,,0826.0,5.00,0.00,21.6,22.3,00.0,30.3,23.5,12.4,-002.2,0017.17,0024.89,0016.31
2023-01-24 17:20:00,,0826.0,5.00,0.00,21.7,22.2,00.0,30.3,23.6,12.2,-002.1,0017.15,0025.32,0016.27
2023-01-24 17:21:00,,0826.0,4.99,0.00,21.7,21.6,00.0,30.3,23.5,12.2,-002.2,0017.14,0025.41,0016.23
2023-01-24 17:22:00,,0825.9,5.01,0.00,21.7,21.2,00.0,30.4,23.5,12.2,-002.3,0017.08,0025.49,0016.19
2023-01-24 17:23:00,,0825.9,5.00,0.00,21.7,20.8,00.0,30.4,23.4,12.3,-002.2,0017.01,0026.10,0016.16
2023-01-24 17:24:00,,0826.0,4.98,0.00,21.7,20.5,00.0,30.4,23.4,12.1,-002.2,0016.91,0026.58,0016.08
2023-01-24 17:25:00,,0825.9,5.01,0.00,21.7,20.4,00.0,30.4,23.3,12.2,-002.1,0016.89,0026.43,0016.03
2023-01-24 17:26:00,,0825.9,4.99,0.00,21.7,20.2,00.0,30.4,23.3,12.4,-002.2,0016.88,0026.46,0016.01
2023-01-24 17:27:00,,0825.9,4.99,0.00,21.7,20.1,00.0,30.4,23.3,12.4,-002.4,0016.79,0026.86,0015.94
2023-01-24 17:28:00,,0825.9,5.00,0.00,21.6,20.0,00.0,30.4,23.3,12.4,-002.4,0016.79,0026.85,0015.91
2023-01-24 17:29:00,,0825.9,5.01,0.00,21.6,19.9,00.0,30.4,23.2,12.4,-002.3,0016.76,0026.07,0015.87
2023-01-24 17:30:00,,0825.9,5.00,0.00,21.6,19.8,00.0,30.4,23.2,12.4,-002.3,0016.73,0025.74,0015.81
2023-01-24 17:31:00,,0826.0,4.99,0.00,21.6,19.8,00.0,30.4,23.2,12.4,-002.3,0016.68,0025.75,0015.76
2023-01-24 17:32:00,,0825.9,4.98,0.00,21.6,19.7,00.0,30.4,23.1,12.1,-002.4,0016.58,0026.12,0015.66
2023-01-24 17:33:00,,0825.9,5.00,0.00,21.5,19.6,00.0,30.3,23.1,12.2,-002.4,0016.50,0026.66,0015.56
2023-01-24 17:34:00,,0825.9,5.01,0.00,21.5,19.6,00.0,30.3,23.0,12.0,-002.5,0016.33,0026.55,0015.40
2023-01-24 17:35:00,,0825.9,5.01,0.00,21.5,19.5,00.0,30.3,23.0,12.1,-002.5,0016.17,0025.76,0015.26
2023-01-24 17:36:00,,0825.9,5.03,0.00,21.5,20.2,00.0,30.3,23.1,12.0,-002.5,0016.03,0025.71,0015.13
2023-01-24 17:37:00,,0825.9,4.98,0.00,21.6,21.7,00.0,30.3,23.4,11.9,-002.3,0015.80,0025.03,0014.92
2023-01-24 17:38:00,,0825.9,5.00,0.00,21.7,22.7,00.0,30.3,23.7,11.8,-002.2,0015.66,0024.95,0014.77
2023-01-24 17:39:00,,0825.9,4.97,0.00,21.8,22.3,00.0,30.4,23.7,11.7,-002.2,0015.48,0024.65,0014.60
2023-01-24 17:40:00,,0825.9,5.01,0.00,21.8,21.7,00.0,30.4,23.7,11.8,-002.2,0015.30,0024.50,0014.42
2023-01-24 17:41:00,,0825.9,5.01,0.00,21.8,21.2,00.0,30.4,23.6,11.7,-002.3,0015.07,0024.26,0014.23
2023-01-24 17:42:00,,0825.9,4.99,0.00,21.8,20.9,00.0,30.5,23.5,11.7,-002.2,0014.85,0023.42,0014.03
2023-01-24 17:43:00,,0825.9,5.00,0.00,21.8,20.6,00.0,30.5,23.5,11.4,-002.1,0014.63,0023.18,0013.84
2023-01-24 17:44:00,,0825.9,5.02,0.00,21.8,20.4,00.0,30.5,23.5,11.4,-002.1,0014.43,0022.37,0013.66
2023-01-24 17:45:00,,0825.8,5.01,0.00,21.8,20.3,00.0,30.5,23.4,11.6,-002.1,0014.32,0021.53,0013.59
2023-01-24 17:46:00,,0825.8,5.00,0.00,21.7,20.1,00.0,30.5,23.3,11.6,-002.1,0014.26,0022.86,0013.53
2023-01-24 17:47:00,,0825.9,5.00,0.00,21.7,19.9,00.0,30.5,23.3,11.6,-002.3,0014.12,0022.48,0013.41
2023-01-24 17:48:00,,0826.1,4.99,0.00,21.7,19.8,00.0,30.5,23.2,11.6,-002.4,0014.06,0022.30,0013.33
2023-01-24 17:49:00,,0826.2,5.01,0.00,21.6,19.7,00.0,30.5,23.2,11.8,-002.5,0014.00,0021.57,0013.26
2023-01-24 17:50:00,,0826.3,5.00,0.00,21.6,19.6,00.0,30.5,23.1,11.6,-002.6,0013.87,0021.01,0013.15
2023-01-24 17:51:00,,0826.3,5.00,0.00,21.5,19.4,00.0,30.4,23.0,11.7,-002.6,0013.70,0020.59,0013.03
2023-01-24 17:52:00,,0826.2,5.01,0.00,21.5,19.3,00.0,30.4,22.9,11.7,-002.5,0013.52,0020.32,0012.89
2023-01-24 17:53:00,,0826.1,5.00,0.00,21.4,19.2,00.0,30.4,22.9,11.9,-002.7,0013.39,0020.94,0012.78
2023-01-24 17:54:00,,0825.9,5.02,0.00,21.4,19.1,00.0,30.3,22.8,11.7,-002.7,0013.31,0020.33,0012.73
2023-01-24 17:55:00,,0825.8,5.01,0.00,21.4,20.3,00.0,30.3,23.0,11.7,-002.6,0013.23,0019.89,0012.65
2023-01-24 17:56:00,,0825.7,4.98,0.00,21.5,21.8,00.0,30.3,23.4,11.8,-002.5,0013.12,0019.53,0012.54
2023-01-24 17:57:00,,0825.8,5.00,0.00,21.6,22.1,00.0,30.3,23.5,11.7,-002.6,0012.97,0018.09,0012.40
2023-01-24 17:58:00,,0825.7,5.00,0.00,21.6,21.4,00.0,30.4,23.4,11.6,-002.6,0012.89,0018.62,0012.33
2023-01-24 17:59:00,,0825.7,4.99,0.00,21.6,20.8,00.0,30.4,23.2,11.9,-002.7,0012.82,0018.58,0012.27
